Location: ??????
(55.6130°N, 37.7882°E)
Time: 22:32:00
(UTC+00:00)

NOAA 16 DEB - Visible Passes

Search period start: 15 September 2024 00:00
Search period end: 25 September 2024 00:00
Orbit: 810 x 842 km, 98.7° (Epoch: 12 September)

Date Brightness Start Highest point End Pass type
(mag) Time Alt. Az. Time Alt. Az. Time Alt. Az.
15 Sep ? 16:47:42 10° SE 16:52:56 48° ENE 16:58:10 10° N visible
15 Sep ? 18:28:43 12° SSW 18:33:17 38° W 18:38:22 10° NNW visible
16 Sep ? 16:28:54 10° SE 16:33:51 37° ENE 16:38:50 10° N visible
16 Sep ? 18:09:24 14° S 18:13:56 51° W 18:19:16 10° NNW visible
16 Sep ? 19:54:48 10° W 19:55:27 10° W 19:56:07 10° WNW visible
17 Sep ? 16:10:09 10° ESE 16:14:46 29° NE 16:19:22 10° N visible
17 Sep ? 17:50:03 15° S 17:54:35 69° WSW 18:00:03 10° NNW visible
17 Sep ? 19:32:52 10° WSW 19:35:48 15° W 19:38:44 10° NW visible
18 Sep ? 17:30:38 15° SSE 17:35:13 89° ENE 17:40:43 10° NNW visible
18 Sep ? 19:12:14 10° SW 19:16:09 20° W 19:20:05 10° NW visible
19 Sep ? 17:11:08 14° SSE 17:15:50 68° ENE 17:21:15 10° NNW visible
19 Sep ? 18:52:35 13° SW 18:56:28 27° W 19:01:03 10° NW visible
20 Sep ? 16:51:34 12° SE 16:56:25 51° ENE 17:01:41 10° N visible
20 Sep ? 18:33:01 16° SSW 18:36:48 36° W 18:41:48 10° NNW visible
21 Sep ? 16:32:00 10° SE 16:37:00 39° ENE 16:42:00 10° N visible
21 Sep ? 18:13:23 19° SSW 18:17:06 49° W 18:22:23 10° NNW visible
22 Sep ? 16:12:55 10° ESE 16:17:33 30° NE 16:22:12 10° N visible
22 Sep ? 17:53:41 21° S 17:57:24 66° WSW 18:02:49 10° NNW visible
22 Sep ? 19:35:56 10° WSW 19:38:38 14° W 19:41:20 10° NW visible
23 Sep ? 15:53:54 10° ESE 15:58:06 23° NE 16:02:17 10° N visible
23 Sep ? 17:33:55 21° SSE 17:37:41 88° WSW 17:43:09 10° NNW visible
23 Sep ? 19:15:22 12° SW 19:18:37 19° W 19:22:25 10° NW visible
24 Sep ? 17:14:05 20° SSE 17:17:56 70° ENE 17:23:21 10° NNW visible
24 Sep ? 18:55:31 16° SW 18:58:35 26° W 19:03:05 10° NW visible
